SCP
0 0 0 0 0 0 0 0 0 0 0 0 0 0 0 0 0 0 0 0 0 0 0 0 0 0 0 0 0 0 0 0 0 0 0 0 0 0 0 0 0 0 0 0 0 0 0 0 0
0 0 0 0 0 0 0 0 0 0 0 0 0 0 0 0 0 0 0 0 0 0 0 0 0 0 0 0 0 0 0 0 0 0 0 0 0 0 0 0 0 0 0 0 0 0 0 0 0
0 0 0 0 0 0 0 0 0 0 0 0 0 0 0 0 0 0 0 0 0 0 0 0 0 0 0 0 0 0 0 0 0 0 0 0 0 0 0 0 0 0 0 0 0 0 0 0 0
0 0 0 0 0 0 0 0 0 0 0 0 0 0 0 0 0 0 0 0 0 0 0 0 0 0 0 0 0 0 0 0 0 0 0 0 0 0 0 0 0 0 0 0 0 0 0 0 0
0 0 0 0 0 0 0 0 0 0 0 0 0 0 0 0 0 0 0 0 0 0 0 0 0 0 0 0 0 0 0 0 0 0 0 0 0 0 0 0 0 0 0 0 0 0 0 0 0
0 0 0 0 0 0 0 0 0 0 0 0 0 0 0 0 0 0 0 0 0 0 0 0 0 0 0 0 0 0 0 0 0 0 0 0 0 0 0 0 0 0 0 0 0 0 0 0 0
0 0 0 0 0 0 0 0 0 0 0 0 0 0 0 0 0 0 0 0 0 0 0 0 0 0 0 0 0 0 0 0 0 0 0 0 0 0 0 0 0 0 0 0 0 0 0 0 0
0 0 0 0 0 0 0 0 0 0 0 0 0 0 0 0 0 0 0 0 0 0 0 0 0 0 0 0 0 0 0 0 0 0 0 0 0 0 0 0 0 0 0 0 0 0 0 0 0
0 0 0 0 0 0 0 0 0 0 0 0 0 0 0 0 0 0 0 0 0 0 0 0 0 0 0 0 0 0 0 0 0 0 0 0 0 0 0 0 0 0 0 0 0 0 0 0 0
0 0 0 0 0 0 0 0 0 0 0 0 0 0 0 0 0 0 0 0 0 0 0 0 0 0 0 0 0 0 0 0 0 0 0 0 0 0 0 0 0 0 0 0 0 0 0 0 0
0 0 0 0 0 0 0 0 0 0 0 0 0 0 0 0 0 0 0 0 0 0 0 0 0 0 0 0 0 0 0 0 0 0 0 0 0 0 0 0 0 0 0 0 0 0 0 0 0
0 0 0 0 0 0 0 0 0 0 0 0 0 0 0 0 0 0 0 0 0 0 0 0 0 0 0 0 0 0 0 0 0 0 0 0 0 0 0 0 0 0 0 0 0 0 0 0 0
0 0 0 0 0 0 0 0 0 0 0 0 0 0 0 0 0 0 0 0 0 0 0 0 0 0 0 0 0 0 0 0 0 0 0 0 0 0 0 0 0 0 0 0 0 0 0 0 0
0 0 0 0 0 0 0 0 0 0 0 0 0 0 0 0 0 0 0 0 0 0 0 0 0 0 0 0 0 0 0 0 0 0 0 0 0 0 0 0 0 0 0 0 0 0 0 0 0
0 0 0 0 0 0 0 0 0 0 0 0 0 0 0 0 0 0 0 0 0 0 0 0 0 0 0 0 0 0 0 0 0 0 0 0 0 0 0 0 0 0 0 0 0 0 0 0 0
0 0 0 0 0 0 0 0 0 0 0 0 0 0 0 0 0 0 0 0 0 0 0 0 0 0 0 0 0 0 0 0 0 0 0 0 0 0 0 0 0 0 0 0 0 0 0 0 0
0 0 0 0 0 0 0 0 0 0 0 0 0 0 0 0 0 0 0 0 0 0 0 0 0 0 0 0 0 0 0 0 0 0 0 0 0 0 0 0 0 0 0 0 0 0 0 0 0
0 0 0 0 0 0 0 0 0 0 0 0 0 0 0 0 0 0 0 0 0 0 0 0 0 0 0 0 0 0 0 0 0 0 0 0 0 0 0 0 0 0 0 0 0 0 0 0 0
0 0 0 0 0 0 0 0 0 0 0 0 0 0 0 0 0 0 0 0 0 0 0 0 0 0 0 0 0 0 0 0 0 0 0 0 0 0 0 0 0 0 0 0 0 0 0 0 0
0 0 0 0 0 0 0 0 0 0 0 0 0 0 0 0 0 0 0 0 0 0 0 0 0 0 0 0 0 0 0 0 0 0 0 0 0 0 0 0 0 0 0 0 0 0 0 0 0
0 0 0 0 0 0 0 0 0 0 0 0 0 0 0 0 0 0 0 0 0 0 0 0 0 0 0 0 0 0 0 0 0 0 0 0 0 0 0 0 0 0 0 0 0 0 0 0 0
0 0 0 0 0 0 0 0 0 0 0 0 0 0 0 0 0 0 0 0 0 0 0 0 0 0 0 0 0 0 0 0 0 0 0 0 0 0 0 0 0 0 0 0 0 0 0 0 0
0 0 0 0 0 0 0 0 0 0 0 0 0 0 0 0 0 0 0 0 0 0 0 0 0 0 0 0 0 0 0 0 0 0 0 0 0 0 0 0 0 0 0 0 0 0 0 0 0
0 0 0 0 0 0 0 0 0 0 0 0 0 0 0 0 0 0 0 0 0 0 0 0 0 0 0 0 0 0 0 0 0 0 0 0 0 0 0 0 0 0 0 0 0 0 0 0 0
0 0 0 0 0 0 0 0 0 0 0 0 0 0 0 0 0 0 0 0 0 0 0 0 0 0 0 0 0 0 0 0 0 0 0 0 0 0 0 0 0 0 0 0 0 0 0 0 0
0 0 0 0 0 0 0 0 0 0 0 0 0 0 0 0 0 0 0 0 0 0 0 0 0 0 0 0 0 0 0 0 0 0 0 0 0 0 0 0 0 0 0 0 0 0 0 0 0
0 0 0 0 0 0 0 0 0 0 0 0 0 0 0 0 0 0 0 0 0 0 0 0 0 0 0 0 0 0 0 0 0 0 0 0 0 0 0 0 0 0 0 0 0 0 0 0 0
0 0 0 0 0 0 0 0 0 0 0 0 0 0 0 0 0 0 0 0 0 0 0 0 0 0 0 0 0 0 0 0 0 0 0 0 0 0 0 0 0 0 0 0 0 0 0 0 0
0 0 0 0 0 0 0 0 0 0 0 0 0 0 0 0 0 0 0 0 0 0 0 0 0 0 0 0 0 0 0 0 0 0 0 0 0 0 0 0 0 0 0 0 0 0 0 0 0
0 0 0 0 0 0 0 0 0 0 0 0 0 0 0 0 0 0 0 0 0 0 0 0 0 0 0 0 0 0 0 0 0 0 0 0 0 0 0 0 0 0 0 0 0 0 0 0 0
Wind_Speed
6 4 3 3 5 5 7 5 4 4 3 1 1 1 0 1 2 3 4 2 2 3 4 5 4 6 7 7 7 8 8 8 8 9 9 9 9 9 9 10 10 10 10 10 11 11 11 12 12
5 3 3 3 6 8 7 6 6 3 3 3 2 1 1 2 3 4 3 2 3 4 4 5 5 7 7 7 7 8 8 8 8 8 8 9 9 9 9 9 9 10 10 10 10 11 11 11 11
2 2 3 4 7 9 7 4 4 3 3 2 2 1 1 2 2 2 2 2 3 5 4 5 6 7 8 7 7 8 7 7 7 8 8 8 9 9 9 9 9 9 9 10 10 10 11 11 11
2 3 3 6 10 7 4 3 3 4 3 1 2 4 3 2 2 2 3 3 4 5 5 6 6 7 8 8 7 7 7 7 7 8 8 8 8 8 9 9 9 9 9 9 9 10 10 10 10
2 3 6 8 10 6 4 2 3 4 3 3 3 3 3 3 2 3 3 4 5 5 5 5 6 7 7 8 8 7 7 7 7 7 7 7 8 8 8 8 9 9 9 9 9 9 10 10 10
2 3 7 10 9 6 4 4 4 4 3 3 3 3 3 3 3 3 4 4 5 5 5 5 6 6 7 7 7 7 7 7 7 6 6 7 7 8 8 8 8 8 9 9 9 9 9 9 9
3 4 7 8 8 7 4 4 5 5 5 3 2 3 4 4 3 4 4 5 5 5 5 4 4 5 6 6 7 7 7 8 8 7 6 6 7 8 9 8 8 8 9 9 9 9 8 8 8
2 3 5 7 8 6 3 3 3 4 3 1 2 3 3 4 5 5 5 5 5 5 4 4 4 4 4 5 7 7 7 8 8 9 8 6 6 7 8 8 8 8 8 8 8 8 8 8 8
3 5 7 7 6 4 4 4 2 1 2 2 1 1 3 6 7 6 5 5 4 4 3 3 3 3 3 4 5 6 6 7 7 7 8 5 4 4 5 7 7 7 7 8 8 8 8 7 7
4 6 6 3 3 2 3 2 2 4 4 4 3 3 4 7 7 7 5 5 4 4 3 2 2 2 3 3 3 3 3 3 4 4 4 3 3 3 4 7 7 7 7 8 8 7 5 3 3
2 5 2 2 1 2 3 2 2 5 5 5 5 5 7 7 7 6 6 5 5 4 3 3 3 2 2 2 2 2 2 2 3 4 4 3 3 3 2 2 3 3 4 4 4 3 2 2 2
2 3 2 2 2 2 3 3 3 5 4 1 1 4 7 8 7 7 6 5 4 4 4 3 3 3 2 2 2 2 2 2 2 3 3 2 2 2 2 2 2 2 2 2 2 1 2 2 2
4 2 1 1 1 2 3 4 5 5 4 3 2 4 6 7 7 6 5 4 4 4 4 3 3 3 2 2 2 2 2 2 2 2 2 2 2 2 2 2 2 2 2 2 2 1 2 2 2
1 1 2 3 3 3 4 5 6 6 4 4 4 5 5 6 6 6 5 5 4 4 4 3 3 3 3 2 2 2 2 2 2 2 2 2 2 1 2 2 2 2 2 1 1 2 1 1 2
2 2 2 3 3 2 4 7 7 5 5 5 6 5 5 5 5 6 5 5 4 4 4 4 3 3 3 2 2 2 2 2 2 2 2 2 2 2 2 2 2 2 2 1 1 2 1 1 1
3 4 4 1 1 2 6 8 4 3 5 6 6 6 5 5 6 5 5 4 4 4 4 4 3 3 3 3 2 1 2 2 2 2 2 2 2 1 1 1 1 1 1 1 1 1 1 0 1
4 5 5 3 1 2 6 8 2 3 5 6 6 6 5 6 6 5 4 5 5 5 4 4 4 4 3 3 2 2 2 2 1 1 1 1 1 1 1 1 1 1 1 1 1 0 0 0 1
4 5 5 5 1 3 7 9 6 5 7 8 7 6 6 6 6 4 4 4 4 4 4 5 4 4 4 3 2 2 2 2 1 1 1 2 1 1 1 1 1 1 1 1 1 1 0 1 1
4 6 7 5 3 5 9 11 9 6 7 8 8 7 6 6 5 4 4 4 4 4 4 4 5 5 4 3 3 2 2 2 2 1 1 1 1 1 1 1 1 1 1 1 1 1 1 1 0
5 6 6 4 2 5 8 12 9 7 7 7 7 7 6 5 4 4 4 4 4 4 5 4 4 5 4 3 2 2 2 1 1 1 1 1 1 1 1 1 1 1 1 1 1 1 0 0 0
6 7 6 5 5 4 8 9 6 4 4 4 5 6 5 5 5 4 4 4 4 4 4 4 4 4 5 4 3 3 2 2 2 2 1 1 2 1 1 1 1 1 1 1 1 1 2 1 1
6 4 5 5 5 3 4 7 5 4 4 4 4 4 4 4 4 4 4 4 4 4 3 4 4 4 4 4 4 5 3 3 3 2 2 2 2 2 2 2 2 2 1 2 2 2 2 2 2
2 1 3 4 4 5 5 7 5 3 5 4 3 3 3 3 3 3 3 3 3 3 3 3 4 3 3 4 4 5 4 3 2 2 2 2 2 2 2 2 2 2 2 2 2 2 3 2 2
1 1 1 2 3 6 6 7 6 3 4 3 2 2 2 2 2 2 2 2 2 2 3 3 3 3 3 3 4 4 4 4 4 3 3 2 2 2 3 3 3 3 2 3 2 3 3 3 3
2 2 2 3 4 5 2 6 7 2 2 3 3 3 2 2 2 2 1 1 2 2 3 4 4 4 4 4 4 4 5 5 5 4 3 3 2 3 4 3 3 3 3 3 3 3 3 3 3
4 4 3 4 4 3 3 7 4 1 2 3 3 3 2 2 1 1 2 2 2 2 2 3 4 3 4 4 4 4 4 3 3 4 3 3 3 3 4 4 4 4 4 3 3 3 3 3 3
3 4 2 2 3 6 6 5 6 4 4 3 3 2 2 2 1 1 2 2 2 2 2 2 3 3 3 4 4 4 4 4 4 4 4 3 3 2 3 4 4 4 4 4 4 3 4 3 4
3 2 3 4 4 6 6 6 4 3 4 3 2 2 3 2 2 1 2 2 2 2 2 2 3 3 3 3 3 3 3 3 3 4 4 4 4 3 3 4 4 3 4 4 4 3 4 4 4
4 4 4 3 4 5 6 4 0 2 2 2 3 3 3 3 3 1 2 2 2 2 2 2 2 3 3 3 3 3 3 3 3 3 4 4 3 3 4 4 4 4 4 4 4 4 4 4 4
4 5 5 4 5 5 6 5 1 2 3 3 4 4 4 3 2 2 2 2 2 2 2 2 2 2 3 3 3 3 3 3 3 3 3 3 3 3 3 3 3 3 4 4 4 4 4 4 4
Wind_Direction
325 312 272 237 219 220 231 216 208 178 164 105 43 256 231 10 334 54 68 84 107 132 134 127 96 101 100 98 96 91 87 87 90 93 90 92 92 90 85 82 79 78 79 79 80 80 80 79 79
320 300 237 228 233 222 218 211 203 185 124 130 125 199 151 88 37 67 99 88 124 125 122 113 92 99 99 95 96 94 90 88 88 90 91 90 91 88 85 85 81 80 82 80 80 81 81 80 79
301 281 240 216 229 233 216 185 190 148 145 184 151 69 24 69 77 86 72 115 131 121 117 105 91 95 92 91 90 93 93 93 91 90 89 90 89 85 82 82 82 81 81 81 82 85 86 83 82
261 206 223 230 226 234 233 170 162 170 163 175 175 132 109 47 26 66 96 132 129 115 111 105 87 93 91 88 85 87 90 92 91 88 87 87 88 84 80 78 79 79 80 82 83 84 86 84 84
255 225 211 221 231 228 226 222 200 204 186 174 195 157 130 93 78 100 123 131 124 113 107 104 83 87 87 88 85 84 86 88 91 91 91 88 87 86 82 79 78 80 81 82 83 82 81 80 81
208 224 223 223 221 217 219 214 206 215 196 177 197 174 131 115 124 119 125 126 119 114 109 108 89 83 83 84 81 80 81 82 85 89 94 93 89 87 84 82 81 82 82 81 82 83 77 78 76
233 225 236 232 222 218 212 207 218 213 207 196 218 184 144 152 128 122 123 120 115 114 114 111 112 100 86 82 77 76 75 78 77 76 84 90 88 88 84 81 81 81 81 79 79 80 78 76 76
266 225 226 225 222 224 190 192 226 238 216 177 239 208 159 149 133 129 124 116 112 109 111 110 114 113 112 105 79 71 72 74 75 68 65 76 85 90 85 81 74 80 80 79 77 78 77 74 74
237 226 225 220 219 206 177 196 192 253 196 185 228 319 59 123 138 138 135 127 120 114 111 115 117 116 114 109 94 86 79 74 81 78 70 79 94 95 89 71 69 74 79 81 79 77 76 74 76
226 229 229 243 236 195 187 219 198 195 200 199 185 147 130 147 154 158 160 157 153 150 138 127 120 115 114 106 110 103 91 88 85 86 87 80 80 74 72 75 66 70 78 83 78 76 82 72 81
228 238 227 233 239 218 210 230 230 222 227 224 206 170 158 166 171 177 177 177 172 168 153 144 137 126 116 109 108 101 97 90 86 81 79 84 83 87 78 85 85 82 82 82 86 92 77 65 57
221 252 257 256 275 257 241 231 236 245 252 298 235 174 174 181 187 189 190 190 178 170 164 153 149 142 133 119 109 107 107 101 86 80 73 81 81 78 80 75 69 61 64 66 65 63 81 76 67
219 231 255 271 294 277 249 242 249 249 251 247 210 190 193 194 198 197 197 192 186 178 171 166 161 154 147 137 120 109 102 92 89 79 71 64 80 84 83 71 66 60 54 61 55 47 71 76 64
184 208 257 281 272 264 248 257 244 240 233 219 210 207 206 207 205 199 198 194 192 188 179 173 167 161 154 142 136 128 114 105 96 84 70 67 70 77 84 85 68 60 51 45 47 44 46 55 49
193 226 259 266 259 259 255 251 237 231 223 225 224 223 222 218 211 212 206 202 201 193 183 177 172 160 152 142 138 127 123 123 113 98 90 84 75 80 79 80 78 62 58 59 60 55 39 57 53
219 229 239 216 258 247 244 252 218 203 224 236 240 238 233 229 223 220 216 211 204 196 184 175 165 163 155 147 137 129 128 128 122 116 114 106 95 93 104 94 81 69 70 71 81 67 53 67 53
211 237 246 242 235 262 243 259 231 228 241 251 254 247 241 235 231 224 220 213 204 197 186 176 169 167 159 149 144 131 126 125 127 129 124 118 117 128 136 118 97 104 93 77 83 89 6 17 14
237 247 250 248 250 274 259 262 264 258 255 258 259 251 242 237 233 225 222 214 201 194 188 181 170 169 159 150 149 142 137 133 129 131 130 133 142 157 153 136 119 125 125 104 94 91 61 35 357
269 259 261 272 302 278 267 271 270 264 256 254 251 249 245 245 240 224 218 208 195 185 185 184 177 172 167 164 169 173 173 165 152 141 136 152 159 166 172 160 145 154 152 139 134 118 123 68 359
241 254 264 275 294 283 283 276 269 256 248 252 251 248 247 248 240 225 214 202 199 194 191 189 185 180 184 185 181 187 176 170 157 142 151 172 179 178 187 182 166 171 174 167 157 152 200 167 259
244 250 263 278 298 259 284 268 240 228 231 243 247 252 248 244 237 224 214 204 199 201 199 199 195 185 188 183 172 156 153 157 168 174 185 192 193 190 196 195 182 174 186 192 189 196 213 231 241
253 255 258 263 274 276 291 282 246 238 245 243 242 238 242 241 233 223 213 209 205 203 198 202 197 187 180 178 188 187 189 194 196 189 191 188 189 197 205 206 202 190 196 206 202 209 222 227 230
266 307 257 259 257 271 248 259 261 227 244 244 247 244 245 247 235 224 212 206 203 195 190 192 190 183 179 187 195 200 200 199 183 179 186 191 191 200 204 212 211 209 209 212 209 213 222 229 237
181 224 240 232 234 250 240 242 261 220 237 250 260 280 280 271 254 240 217 190 177 181 182 178 176 175 180 191 200 202 200 196 192 194 189 197 202 205 209 217 217 216 215 214 216 216 223 233 237
215 228 239 221 223 243 194 240 257 261 257 261 273 295 302 284 259 246 227 195 176 173 187 184 183 186 190 196 206 208 211 210 208 209 205 207 212 214 213 212 220 219 219 217 217 217 224 231 233
220 234 245 260 262 268 216 244 257 282 277 276 275 290 308 298 268 243 232 210 198 196 204 198 193 196 194 198 209 213 215 220 220 220 221 222 224 224 217 212 218 221 219 216 214 218 223 226 228
204 220 288 272 277 269 246 255 268 229 232 239 250 274 296 313 297 251 226 219 218 214 215 215 206 210 208 207 208 215 218 224 231 229 225 228 228 222 219 214 215 216 216 215 211 218 219 221 226
284 194 193 224 253 262 261 255 251 213 221 221 239 271 291 301 300 268 233 227 230 233 233 218 211 215 219 216 214 219 225 230 236 235 228 225 224 215 215 220 218 213 213 213 213 219 219 220 225
192 196 219 226 267 271 277 261 237 244 240 251 275 287 290 285 283 275 248 234 235 236 233 229 220 212 216 219 217 223 230 233 233 235 236 228 223 215 213 217 220 219 216 211 211 217 217 221 226
246 225 209 232 237 250 274 275 85 266 277 279 290 300 298 290 288 283 272 250 239 243 247 247 240 232 223 221 222 227 232 232 233 234 241 235 228 221 216 213 216 220 219 214 214 217 222 224 226